FW3322 Weather Reports


Display with metric or nautical units.
time (UTC)temp
F
wind
direction
speed
MPH
gust
MPH
rain 1hr
in
rain 24hr
in
rain mn
in
humidity
%
barometer
mb
20260505124503 0 0.0 0.0 0.00 0.12 0.12 1008.2
20260505123104 0 0.0 0.0 0.00 0.12 0.12 1007.5
20260505121615 0 0.0 0.0 0.00 0.12 0.12 1007.1
20260505120051 0 0.0 0.0 0.00 0.12 0.12 1006.5
20260505114545 0 0.0 0.0 0.00 0.12 0.12 1006.7
20260505113042 0 0.0 0.0 0.00 0.12 0.12 1006.5
20260505111541 0 0.0 0.0 0.00 0.12 0.12 1006.2
20260505101522 59 329 6.0 13.0 0.00 0.12 0.12 90 1006.2
20260505100022 60 22 11.0 16.0 0.00 0.12 0.12 93 1006.2
20260505094517 60 53 1.0 5.0 0.01 0.12 0.12 99 1005.7
20260505093026 61 38 0.0 1.0 0.02 0.12 0.12 99 1005.8
20260505091516 60 23 0.0 4.0 0.02 0.12 0.12 99 1005.5
20260505090015 60 338 4.0 12.0 0.02 0.12 0.12 99 1005.7
20260505084517 61 350 6.0 12.0 0.01 0.11 0.11 99 1006.0
20260505083013 61 337 0.0 1.0 0.00 0.10 0.10 99 1004.4
20260505081516 61 138 1.0 6.0 0.00 0.10 0.10 99 1003.8
20260505080011 61 144 1.0 8.0 0.00 0.10 0.10 99 1003.9
20260505074511 61 128 0.0 6.0 0.00 0.10 0.10 98 1003.3
20260505073010 61 151 2.0 7.0 0.02 0.10 0.10 98 1003.2
20260505071508 61 174 5.0 9.0 0.08 0.10 0.10 98 1003.3
20260505070007 61 146 11.0 20.0 0.10 0.10 0.10 97 1002.4
20260505064504 62 165 10.0 18.0 0.10 0.10 0.10 95 1003.4
20260505063059 63 180 4.0 13.0 0.08 0.08 0.08 92 1005.3
20260505061557 64 156 9.0 25.0 0.02 0.02 0.02 89 1005.4
20260505060050 67 177 5.0 13.0 0.00 0.00 0.00 81 1005.3
20260505054547 67 155 2.0 7.0 0.00 0.00 0.00 78 1004.6
20260505053048 68 198 1.0 7.0 0.00 0.00 0.00 77 1004.2
20260505051543 68 151 4.0 7.0 0.00 0.00 0.00 77 1003.9
20260505041538 68 143 3.0 6.0 0.00 0.00 0.00 76 1004.5
20260505040037 68 186 4.0 7.0 0.00 0.00 0.00 76 1004.2
20260505034536 68 165 3.0 6.0 0.00 0.00 0.00 76 1004.9
20260505033100 68 146 1.0 5.0 0.00 0.00 0.00 76 1005.0
20260505031538 68 163 1.0 6.0 0.00 0.00 0.00 76 1004.8
20260505030034 69 145 1.0 3.0 0.00 0.00 0.00 75 1004.8
20260505024534 69 146 0.0 4.0 0.00 0.00 0.00 75 1004.9
20260505023037 69 146 1.0 5.0 0.00 0.00 0.00 75 1004.9
20260505021532 70 142 1.0 3.0 0.00 0.00 0.00 75 1004.7
20260505020031 70 162 1.0 4.0 0.00 0.00 0.00 73 1004.4
20260505014533 71 138 0.0 3.0 0.00 0.00 0.00 72 1004.4
20260505013030 72 141 3.0 7.0 0.00 0.00 0.00 70 1004.2
20260505011530 72 120 3.0 8.0 0.00 0.00 0.00 69 1004.1
20260505010029 73 149 2.0 7.0 0.00 0.00 0.00 68 1004.1
20260505004539 74 132 1.0 13.0 0.00 0.00 0.00 66 1004.0
20260505003027 74 213 4.0 14.0 0.00 0.00 0.00 65 1004.0
20260505001526 75 212 5.0 15.0 0.00 0.00 0.00 65 1004.0
20260505000027 75 202 1.0 9.0 0.00 0.00 0.00 67 1003.9
20260504234530 76 158 2.0 8.0 0.00 0.00 0.00 66 1003.8
20260504233024 77 257 2.0 8.0 0.00 0.00 0.00 65 1003.9
20260504231623 77 140 1.0 12.0 0.00 0.00 0.00 64 1003.9
20260504230023 77 157 5.0 14.0 0.00 0.00 0.00 62 1004.0
20260504224523 78 199 5.0 10.0 0.00 0.00 0.00 63 1003.8
20260504223022 78 246 5.0 18.0 0.00 0.00 0.00 62 1003.7
20260504221523 78 241 6.0 15.0 0.00 0.00 0.00 62 1003.6
20260504220021 80 192 4.0 13.0 0.00 0.00 0.00 64 1003.6
20260504214524 80 148 7.0 14.0 0.00 0.00 0.00 61 1003.6
20260504213023 81 176 6.0 15.0 0.00 0.00 0.00 60 1003.8
20260504211516 81 155 6.0 16.0 0.00 0.00 0.00 61 1003.8
20260504210015 81 252 6.0 23.0 0.00 0.00 0.00 60 1003.9
20260504204528 81 230 8.0 20.0 0.00 0.00 0.00 60 1004.1
20260504203013 82 213 4.0 16.0 0.00 0.00 0.00 60 1004.2
20260504201510 82 186 7.0 15.0 0.00 0.00 0.00 58 1004.5
20260504200010 82 161 3.0 13.0 0.00 0.00 0.00 58 1004.6
20260504194509 81 227 4.0 12.0 0.00 0.00 0.00 60 1004.8
20260504193012 81 128 8.0 18.0 0.00 0.00 0.00 58 1004.8
20260504191502 81 199 5.0 14.0 0.00 0.00 0.00 60 1005.1
20260504184604 79 157 6.0 14.0 0.00 0.00 0.00 59 1005.5
20260504183100 79 191 7.0 18.0 0.00 0.00 0.00 59 1005.4
20260504181552 78 101 5.0 19.0 0.00 0.00 0.00 59 1005.6
20260504180051 78 279 6.0 18.0 0.00 0.00 0.00 60 1005.9
20260504174550 77 250 5.0 19.0 0.00 0.00 0.00 60 1006.0
20260504173046 77 116 7.0 18.0 0.00 0.00 0.00 60 1005.9
20260504171547 76 207 7.0 18.0 0.00 0.00 0.00 62 1005.8